Weather History for KJAC - April, 2014

Change the Weather History Date:

Wednesday, April 9, 2014

  Actual Average Record
Temperature  
Mean Temperature 44 °F -  
Max Temperature 51 °F 45 °F - (-1)
Min Temperature 37 °F 19 °F - (-1)
Degree Days  
Heating Degree Days 21    
Moisture  
Dew Point 27 °F    
Average Humidity 54    
Maximum Humidity 75    
Minimum Humidity 30    
Precipitation  
Precipitation 0.00 in - - ()
Sea Level Pressure  
Sea Level Pressure 30.04 in    
Wind  
Wind Speed 10 mph (SW)    
Max Wind Speed 25 mph    
Max Gust Speed 38 mph    
Visibility 10 miles    
Events      
Averages and records for this station are not official NWS values.
T = Trace of Precipitation, MM = Missing Value Source: NWS Daily Summary

Daily Weather History Graph

Daily Weather History Graph

Search for Another Location

Airport or City:

Trip Planner

Search our weather history database for the weather conditions in past years. The results will help you decide how hot, cold, wet, or windy it might be!

Date:

Astronomy

Apr. 09, 2014 Rise Set
Actual Time 6:50 AM MDT 7:59 PM MDT
Civil Twilight 6:20 AM MDT 8:28 PM MDT
Nautical Twilight 5:45 AM MDT 9:04 PM MDT
Astronomical Twilight 5:08 AM MDT 9:41 PM MDT
Moon 2:41 PM MDT (4/9) 3:51 AM MDT (4/9)
Length of Visible Light 14h 07m
Length of Day
13h 08m
Waxing Gibbous, 72% of the Moon is Illuminated
Apr 9
Waxing Gibbous
Apr 15
Full
Apr 22
Last Quarter
Apr 29
New
May 6
First Quarter

Hourly Weather History & Observations

Time (MDT) Temp. Windchill Dew Point Humidity Pressure Visibility Wind Dir Wind Speed Gust Speed Precip Events Conditions
12:15 AM 42.8 °F - 30.2 °F 61% 30.15 in 10.0 mi Calm Calm - N/A   Clear
12:35 AM 39.2 °F - 30.2 °F 70% 30.15 in 10.0 mi Calm Calm - N/A   Clear
12:55 AM 41.0 °F 36.4 °F 30.2 °F 65% 30.15 in 10.0 mi SSW 6.9 mph - N/A   Clear
1:15 AM 37.4 °F 34.9 °F 30.2 °F 75% 30.14 in 10.0 mi South 3.5 mph - N/A   Clear
1:35 AM 39.2 °F 35.9 °F 30.2 °F 70% 30.13 in 10.0 mi SE 4.6 mph - N/A   Clear
1:55 AM 39.2 °F 33.6 °F 30.2 °F 70% 30.13 in 10.0 mi SSW 8.1 mph - N/A   Clear
2:15 AM 41.0 °F 34.7 °F 30.2 °F 65% 30.12 in 10.0 mi SSW 10.4 mph - N/A   Clear
2:35 AM 39.2 °F 32.0 °F 30.2 °F 70% 30.11 in 10.0 mi SW 11.5 mph - N/A   Clear
2:55 AM 39.2 °F 31.6 °F 30.2 °F 70% 30.11 in 10.0 mi SW 12.7 mph - N/A   Clear
3:15 AM 39.2 °F 31.2 °F 30.2 °F 70% 30.10 in 10.0 mi SW 13.8 mph - N/A   Clear
3:35 AM 39.2 °F 31.6 °F 30.2 °F 70% 30.09 in 10.0 mi SW 12.7 mph - N/A   Clear
3:55 AM 39.2 °F 31.6 °F 28.4 °F 65% 30.09 in 10.0 mi WSW 12.7 mph - N/A   Clear
4:15 AM 39.2 °F 31.6 °F 28.4 °F 65% 30.08 in 10.0 mi SW 12.7 mph - N/A   Clear
4:35 AM 39.2 °F 31.6 °F 28.4 °F 65% 30.08 in 10.0 mi WSW 12.7 mph - N/A   Clear
4:55 AM 39.2 °F 31.2 °F 28.4 °F 65% 30.07 in 10.0 mi SW 13.8 mph - N/A   Clear
5:15 AM 39.2 °F 31.2 °F 28.4 °F 65% 30.07 in 10.0 mi SW 13.8 mph - N/A   Clear
5:35 AM 39.2 °F 32.0 °F 28.4 °F 65% 30.07 in 10.0 mi SW 11.5 mph - N/A   Clear
5:55 AM 37.4 °F 30.3 °F 28.4 °F 70% 30.06 in 10.0 mi SW 10.4 mph - N/A   Clear
6:15 AM 37.4 °F 30.3 °F 28.4 °F 70% 30.06 in 10.0 mi SSW 10.4 mph - N/A   Clear
6:35 AM 37.4 °F 30.8 °F 28.4 °F 70% 30.07 in 10.0 mi SW 9.2 mph - N/A   Clear
6:51 AM 37.4 °F 32.1 °F 28.4 °F 70% 30.06 in 10.0 mi SSW 6.9 mph - N/A   Partly Cloudy
7:51 AM 39.2 °F 32.5 °F 28.4 °F 65% 30.05 in 10.0 mi SW 10.4 mph - N/A   Partly Cloudy
8:51 AM 41.0 °F 36.4 °F 30.2 °F 65% 30.05 in 10.0 mi SSW 6.9 mph - N/A   Clear
9:57 AM 48.2 °F - 28.4 °F 46% 30.04 in 10.0 mi South 13.8 mph - N/A   Clear
10:54 AM 50.0 °F - 26.6 °F 40% 30.02 in 10.0 mi South 24.2 mph - N/A   Clear
11:51 AM 51.8 °F - 24.8 °F 35% 30.02 in 10.0 mi SSW 17.3 mph 29.9 mph N/A   Scattered Clouds
12:52 PM 51.8 °F - 24.8 °F 35% 30.00 in 10.0 mi SSW 25.3 mph 38.0 mph N/A   Scattered Clouds
1:58 PM 51.8 °F - 26.6 °F 38% 29.99 in 10.0 mi SSW 23.0 mph 33.4 mph N/A   Scattered Clouds
2:59 PM 51.8 °F - 28.4 °F 41% 29.97 in 10.0 mi SSW 17.3 mph 26.5 mph N/A   Scattered Clouds
3:51 PM 51.8 °F - 28.4 °F 41% 29.94 in 10.0 mi SSW 18.4 mph 25.3 mph N/A   Scattered Clouds
4:53 PM 51.8 °F - 28.4 °F 41% 29.93 in 10.0 mi SSW 24.2 mph 32.2 mph N/A   Mostly Cloudy
5:51 PM 51.8 °F - 28.4 °F 41% 29.93 in - SSW 24.2 mph 26.5 mph N/A   Scattered Clouds
6:51 PM 50.0 °F - 26.6 °F 40% 29.93 in 10.0 mi SW 17.3 mph 25.3 mph N/A   Mostly Cloudy
7:52 PM 46.4 °F 41.1 °F 28.4 °F 50% 29.96 in 10.0 mi SW 11.5 mph 23.0 mph N/A   Mostly Cloudy
8:55 PM 48.2 °F - 24.8 °F 40% 29.95 in 10.0 mi SW 23.0 mph 28.8 mph N/A   Mostly Cloudy
9:15 PM 48.2 °F - 24.8 °F 40% 29.97 in 10.0 mi WSW 18.4 mph 33.4 mph N/A   Overcast
9:35 PM 48.2 °F - 23.0 °F 37% 29.97 in 10.0 mi SW 24.2 mph 31.1 mph N/A   Mostly Cloudy
9:55 PM 48.2 °F - 21.2 °F 34% 29.97 in 10.0 mi SW 24.2 mph 33.4 mph N/A   Overcast
10:15 PM 48.2 °F - 21.2 °F 34% 29.98 in 10.0 mi SW 16.1 mph 29.9 mph N/A   Overcast
10:35 PM 48.2 °F - 21.2 °F 34% 29.97 in 10.0 mi WSW 15.0 mph 31.1 mph N/A   Overcast
10:55 PM 48.2 °F - 21.2 °F 34% 29.97 in 10.0 mi WSW 12.7 mph 24.2 mph N/A   Partly Cloudy
11:15 PM 46.4 °F 40.4 °F 21.2 °F 37% 29.97 in 10.0 mi WSW 13.8 mph 26.5 mph N/A   Clear
11:35 PM 48.2 °F - 17.6 °F 30% 29.98 in 10.0 mi WSW 10.4 mph 25.3 mph N/A   Clear
11:55 PM 46.4 °F 42.9 °F 19.4 °F 34% 29.99 in 10.0 mi West 6.9 mph - N/A   Clear